Total_Precipitation_Accumulation
1.03 1.20 1.79 2.38 2.57 1.96 1.57 1.18 0.78 0.68 0.65 0.43 0.32 0.30 0.42 0.70 1.00 1.24 1.00 0.83 0.57 0.47 0.41 0.59 0.83 0.77 0.68 0.69 0.75 0.84 0.86 0.95 0.82 0.74 0.66 0.57 0.49 0.49 0.49 0.41 0.39 0.42 0.37 0.33 0.39 0.49 0.50 0.53 0.54
0.99 1.79 2.52 3.08 2.51 1.67 1.48 1.15 0.90 0.70 0.46 0.35 0.25 0.25 0.33 0.29 0.27 0.51 0.99 1.04 0.57 0.47 0.44 0.59 0.85 0.79 0.78 0.80 0.82 0.86 0.91 0.99 0.90 0.77 0.65 0.57 0.53 0.53 0.53 0.63 0.67 0.55 0.40 0.37 0.40 0.54 0.56 0.53 0.57
1.22 2.36 3.29 3.02 1.98 1.52 1.54 1.12 0.80 0.53 0.35 0.31 0.27 0.24 0.32 0.35 0.36 0.69 1.06 0.87 0.59 0.49 0.52 0.76 0.95 0.83 0.79 0.84 0.93 0.95 1.00 1.02 0.92 0.74 0.57 0.55 0.60 0.69 0.80 0.84 0.74 0.55 0.46 0.45 0.48 0.56 0.60 0.54 0.50
1.61 2.70 2.83 2.20 1.81 1.42 1.21 0.93 0.62 0.58 0.40 0.23 0.22 0.29 0.28 0.32 0.40 0.70 0.80 0.71 0.62 0.52 0.46 0.60 0.84 0.81 0.82 0.87 0.97 0.94 0.96 1.02 0.97 0.78 0.63 0.60 0.63 0.67 0.75 0.82 0.72 0.57 0.50 0.50 0.55 0.60 0.61 0.57 0.52
2.01 2.50 2.41 1.99 1.73 1.29 0.93 0.73 0.54 0.54 0.43 0.23 0.19 0.38 0.50 0.52 0.46 0.60 0.78 0.78 0.61 0.53 0.45 0.47 0.68 0.68 0.72 0.86 0.98 0.98 1.00 1.03 0.99 0.79 0.70 0.71 0.69 0.66 0.73 0.76 0.71 0.58 0.52 0.52 0.58 0.62 0.66 0.62 0.58
2.25 2.22 2.33 2.19 1.92 1.43 1.01 0.72 0.52 0.50 0.40 0.28 0.27 0.42 0.55 0.65 0.60 0.64 0.65 0.68 0.64 0.62 0.52 0.46 0.62 0.69 0.68 0.76 0.84 0.90 0.96 1.01 0.96 0.77 0.71 0.71 0.71 0.68 0.69 0.73 0.73 0.64 0.64 0.64 0.64 0.62 0.65 0.67 0.62
2.15 2.06 2.01 1.84 1.93 1.84 1.21 0.73 0.62 0.53 0.48 0.41 0.33 0.49 0.56 0.70 0.55 0.65 0.67 0.66 0.71 0.68 0.64 0.56 0.57 0.63 0.73 0.82 0.87 0.89 0.93 0.96 0.99 0.87 0.80 0.78 0.71 0.61 0.59 0.61 0.64 0.66 0.73 0.71 0.65 0.62 0.60 0.62 0.63
1.71 1.67 1.52 1.56 1.73 1.77 1.08 0.59 0.45 0.44 0.39 0.27 0.32 0.47 0.54 0.58 0.53 0.62 0.67 0.66 0.65 0.67 0.65 0.60 0.61 0.69 0.69 0.75 0.94 1.01 1.04 1.07 1.10 0.97 0.85 0.81 0.68 0.58 0.58 0.53 0.57 0.64 0.77 0.84 0.77 0.70 0.66 0.65 0.68
1.59 1.67 1.67 1.78 1.59 1.37 0.84 0.58 0.41 0.37 0.34 0.25 0.23 0.30 0.36 0.41 0.51 0.61 0.70 0.70 0.68 0.62 0.60 0.59 0.63 0.75 0.81 0.78 0.88 1.15 1.18 1.21 1.18 1.04 0.94 0.83 0.64 0.56 0.58 0.54 0.70 0.72 0.76 0.84 0.88 0.86 0.79 0.74 0.69
1.67 1.72 1.75 1.52 1.09 0.94 0.73 0.60 0.45 0.35 0.35 0.29 0.26 0.33 0.40 0.47 0.56 0.61 0.66 0.67 0.66 0.66 0.61 0.57 0.56 0.62 0.70 0.75 0.88 1.03 1.01 1.02 1.01 1.16 1.07 0.94 0.89 0.76 0.49 0.55 0.76 0.90 0.92 0.89 0.86 0.93 0.82 0.66 0.50
1.32 1.31 1.06 1.07 0.84 0.68 0.61 0.50 0.44 0.43 0.48 0.33 0.34 0.40 0.46 0.53 0.59 0.63 0.64 0.62 0.64 0.62 0.57 0.50 0.47 0.45 0.51 0.64 0.81 0.91 1.01 1.11 1.07 1.03 1.04 1.01 0.89 0.70 0.57 0.61 0.63 0.70 0.76 0.69 0.72 0.72 0.57 0.49 0.50
1.14 0.94 0.74 0.76 0.66 0.67 0.62 0.47 0.39 0.37 0.41 0.31 0.30 0.38 0.49 0.51 0.56 0.59 0.59 0.58 0.53 0.53 0.55 0.48 0.39 0.38 0.38 0.46 0.55 0.66 0.80 0.92 0.96 0.81 0.77 0.85 0.87 0.76 0.63 0.63 0.62 0.62 0.67 0.75 0.78 0.77 0.66 0.60 0.57
1.25 0.99 0.77 0.68 0.64 0.61 0.56 0.47 0.38 0.33 0.32 0.31 0.35 0.46 0.50 0.55 0.61 0.62 0.51 0.48 0.45 0.47 0.53 0.50 0.42 0.40 0.38 0.41 0.43 0.44 0.63 0.80 0.91 0.92 0.80 0.77 0.79 0.77 0.71 0.59 0.62 0.57 0.60 0.66 0.70 0.73 0.72 0.75 0.74
1.06 0.93 0.84 0.76 0.65 0.49 0.49 0.46 0.35 0.37 0.33 0.28 0.30 0.39 0.45 0.53 0.57 0.57 0.50 0.46 0.43 0.45 0.54 0.54 0.52 0.52 0.46 0.40 0.41 0.43 0.51 0.63 0.72 0.87 0.88 0.82 0.75 0.71 0.74 0.69 0.70 0.71 0.69 0.69 0.69 0.67 0.77 0.80 0.78
0.79 0.91 0.87 0.72 0.62 0.51 0.48 0.54 0.40 0.42 0.39 0.33 0.30 0.32 0.41 0.47 0.47 0.46 0.43 0.41 0.43 0.43 0.47 0.46 0.48 0.55 0.54 0.52 0.51 0.51 0.60 0.62 0.69 0.76 0.77 0.84 0.74 0.68 0.73 0.76 0.77 0.79 0.79 0.79 0.80 0.80 0.86 0.81 0.81
0.84 1.02 1.11 0.80 0.65 0.62 0.63 0.64 0.45 0.45 0.42 0.39 0.36 0.37 0.37 0.43 0.44 0.42 0.40 0.37 0.39 0.38 0.39 0.43 0.42 0.49 0.58 0.63 0.66 0.71 0.74 0.77 0.84 0.81 0.78 0.77 0.73 0.70 0.79 0.81 0.85 0.91 0.83 0.80 0.87 0.92 0.96 0.91 0.91
1.05 0.98 0.89 0.80 0.61 0.57 0.60 0.57 0.44 0.44 0.38 0.36 0.32 0.34 0.32 0.36 0.42 0.42 0.39 0.35 0.35 0.36 0.38 0.42 0.45 0.51 0.58 0.63 0.73 0.83 0.91 0.99 1.13 1.10 1.05 0.99 0.87 0.88 0.95 0.99 1.02 1.05 1.07 0.99 0.88 0.90 0.96 1.03 1.03
1.00 0.67 0.57 0.54 0.53 0.48 0.51 0.47 0.41 0.44 0.30 0.29 0.30 0.29 0.28 0.31 0.36 0.38 0.38 0.36 0.37 0.36 0.38 0.42 0.49 0.58 0.68 0.84 1.06 1.28 1.36 1.54 1.75 1.69 1.54 1.36 1.20 1.16 1.26 1.24 1.19 1.26 1.34 1.35 1.14 1.18 1.12 1.06 1.11
0.63 0.50 0.47 0.43 0.40 0.40 0.37 0.34 0.29 0.32 0.25 0.21 0.22 0.23 0.25 0.23 0.27 0.29 0.30 0.30 0.28 0.27 0.31 0.37 0.42 0.52 0.63 0.86 1.19 1.62 1.84 1.97 1.99 2.01 1.90 1.70 1.48 1.49 1.65 1.61 1.60 1.60 1.57 1.53 1.48 1.60 1.53 1.26 1.17
0.53 0.48 0.44 0.40 0.36 0.33 0.25 0.21 0.19 0.18 0.14 0.14 0.14 0.16 0.20 0.21 0.21 0.18 0.18 0.19 0.17 0.16 0.18 0.28 0.34 0.43 0.57 0.85 1.17 1.52 1.88 1.97 2.00 2.01 1.97 1.84 1.71 1.72 1.76 1.95 2.05 2.02 2.11 2.08 1.90 2.03 2.02 1.67 1.42
0.46 0.47 0.44 0.42 0.42 0.32 0.24 0.20 0.16 0.13 0.13 0.12 0.13 0.14 0.17 0.17 0.17 0.17 0.14 0.13 0.13 0.13 0.13 0.19 0.25 0.39 0.67 1.01 1.33 1.53 1.82 1.95 2.02 1.98 1.99 2.01 1.97 1.87 1.89 2.00 2.17 2.19 2.25 2.32 2.39 2.33 2.40 2.18 1.80
0.44 0.33 0.29 0.30 0.36 0.33 0.25 0.27 0.19 0.15 0.18 0.18 0.20 0.20 0.22 0.22 0.19 0.18 0.17 0.12 0.10 0.10 0.12 0.15 0.21 0.41 0.74 1.09 1.35 1.59 1.94 2.05 2.03 2.07 2.06 2.08 2.10 2.06 2.13 2.15 2.25 2.27 2.29 2.38 2.48 2.44 2.54 2.59 2.21
0.34 0.24 0.22 0.22 0.26 0.27 0.18 0.21 0.22 0.19 0.22 0.28 0.28 0.27 0.27 0.25 0.19 0.17 0.15 0.13 0.12 0.12 0.14 0.20 0.34 0.53 0.79 0.99 1.24 1.60 1.86 1.99 2.14 2.09 2.07 2.08 2.15 2.17 2.20 2.27 2.42 2.40 2.37 2.35 2.56 2.62 2.69 2.61 2.52
0.20 0.19 0.21 0.22 0.23 0.25 0.13 0.19 0.30 0.27 0.23 0.25 0.25 0.25 0.25 0.23 0.20 0.19 0.18 0.17 0.17 0.20 0.25 0.34 0.50 0.65 0.85 1.02 1.22 1.41 1.68 1.83 1.97 2.08 2.02 2.03 2.10 2.20 2.10 2.02 2.16 2.22 2.25 2.24 2.41 2.58 2.71 2.69 2.71
0.14 0.24 0.35 0.35 0.38 0.31 0.16 0.25 0.39 0.29 0.22 0.22 0.22 0.23 0.24 0.26 0.27 0.31 0.32 0.35 0.41 0.45 0.48 0.57 0.66 0.77 0.88 0.97 1.07 1.14 1.31 1.48 1.54 1.72 1.81 1.94 1.96 2.02 2.05 1.95 1.95 1.98 1.93 1.97 2.08 2.14 2.22 2.36 2.51
0.11 0.20 0.35 0.39 0.35 0.31 0.27 0.44 0.47 0.32 0.25 0.24 0.25 0.27 0.30 0.39 0.45 0.54 0.62 0.70 0.76 0.76 0.74 0.81 0.87 0.85 0.83 0.88 0.94 0.97 1.04 1.13 1.22 1.27 1.32 1.51 1.68 1.72 1.80 1.80 1.75 1.79 1.83 1.84 1.91 1.92 1.92 1.95 2.02
0.10 0.14 0.19 0.27 0.23 0.23 0.27 0.48 0.48 0.35 0.33 0.32 0.33 0.36 0.44 0.64 0.74 0.84 0.92 0.93 0.93 0.91 0.86 0.87 0.89 0.87 0.84 0.85 0.84 0.80 0.80 0.87 0.98 1.01 1.09 1.16 1.26 1.28 1.34 1.44 1.51 1.61 1.66 1.72 1.85 1.91 1.90 1.86 1.83
0.09 0.14 0.21 0.39 0.48 0.42 0.39 0.53 0.56 0.48 0.41 0.38 0.43 0.51 0.68 0.95 1.09 1.22 1.29 1.19 1.10 1.10 1.14 1.02 0.93 0.86 0.83 0.83 0.82 0.76 0.73 0.78 0.82 0.83 0.90 0.89 0.91 0.94 1.00 1.11 1.28 1.50 1.62 1.66 1.73 1.78 1.86 1.89 1.85
0.13 0.21 0.31 0.48 0.57 0.70 0.78 0.88 0.71 0.61 0.61 0.68 0.78 0.85 1.06 1.33 1.47 1.56 1.57 1.45 1.24 1.11 1.10 1.04 0.93 0.82 0.72 0.71 0.76 0.76 0.71 0.73 0.78 0.77 0.73 0.67 0.70 0.78 0.89 0.95 1.09 1.24 1.43 1.61 1.76 1.77 1.76 1.80 1.78
0.24 0.40 0.55 0.86 0.85 0.74 0.91 1.11 0.85 0.70 0.72 0.76 0.82 0.95 1.16 1.28 1.34 1.37 1.32 1.30 1.18 1.09 1.00 0.96 0.85 0.71 0.65 0.70 0.73 0.75 0.67 0.62 0.65 0.66 0.68 0.59 0.56 0.62 0.71 0.84 1.05 1.16 1.25 1.30 1.38 1.46 1.49 1.51 1.56